Year,Month,Day,Hour,Minute,Value (Times are PST for temperature in C)
2012,07,20,00,00,19.10
2012,07,20,00,01,19.10
2012,07,20,00,02,19.10
2012,07,20,00,03,19.10
2012,07,20,00,04,19.10
2012,07,20,00,05,19.10
2012,07,20,00,06,19.10
2012,07,20,00,07,19.10
2012,07,20,00,08,19.10
2012,07,20,00,09,19.10
2012,07,20,00,10,19.10
2012,07,20,00,11,19.10
2012,07,20,00,12,19.10
2012,07,20,00,13,19.10
2012,07,20,00,14,19.20
2012,07,20,00,15,19.20
2012,07,20,00,16,19.20
2012,07,20,00,17,19.20
2012,07,20,00,18,19.20
2012,07,20,00,19,19.20
2012,07,20,00,20,19.20
2012,07,20,00,21,19.20
2012,07,20,00,22,19.20
2012,07,20,00,23,19.20
2012,07,20,00,24,19.20
2012,07,20,00,25,19.20
2012,07,20,00,26,19.20
2012,07,20,00,27,19.20
2012,07,20,00,28,19.20
2012,07,20,00,29,19.10
2012,07,20,00,30,19.10
2012,07,20,00,31,19.10
2012,07,20,00,32,19.00
2012,07,20,00,33,19.00
2012,07,20,00,34,19.00
2012,07,20,00,35,18.90
2012,07,20,00,36,19.00
2012,07,20,00,37,18.90
2012,07,20,00,38,19.00
2012,07,20,00,39,19.00
2012,07,20,00,40,19.00
2012,07,20,00,41,19.00
2012,07,20,00,42,19.10
2012,07,20,00,43,19.10
2012,07,20,00,44,19.10
2012,07,20,00,45,19.10
2012,07,20,00,46,19.10
2012,07,20,00,47,19.10
2012,07,20,00,48,19.10
2012,07,20,00,49,19.10
2012,07,20,00,50,19.10
2012,07,20,00,51,19.10
2012,07,20,00,52,19.10
2012,07,20,00,53,19.10
2012,07,20,00,54,19.10
2012,07,20,00,55,19.10
2012,07,20,00,56,19.10
2012,07,20,00,57,19.00
2012,07,20,00,58,19.00
2012,07,20,00,59,18.90
2012,07,20,01,00,18.90
2012,07,20,01,01,18.90
2012,07,20,01,02,18.90
2012,07,20,01,03,18.90
2012,07,20,01,04,18.90
2012,07,20,01,05,18.80
2012,07,20,01,06,18.80
2012,07,20,01,07,18.80
2012,07,20,01,08,18.80
2012,07,20,01,09,18.80
2012,07,20,01,10,18.80
2012,07,20,01,11,18.80
2012,07,20,01,12,18.80
2012,07,20,01,13,18.80
2012,07,20,01,14,18.80
2012,07,20,01,15,18.70
2012,07,20,01,16,18.70
2012,07,20,01,17,18.70
2012,07,20,01,18,18.70
2012,07,20,01,19,18.70
2012,07,20,01,20,18.70
2012,07,20,01,21,18.70
2012,07,20,01,22,18.70
2012,07,20,01,23,18.70
2012,07,20,01,24,18.70
2012,07,20,01,25,18.70
2012,07,20,01,26,18.70
2012,07,20,01,27,18.70
2012,07,20,01,28,18.70
2012,07,20,01,29,18.70
2012,07,20,01,30,18.70
2012,07,20,01,31,18.70
2012,07,20,01,32,18.70
2012,07,20,01,33,18.70
2012,07,20,01,34,18.70
2012,07,20,01,35,18.70
2012,07,20,01,36,18.70
2012,07,20,01,37,18.70
2012,07,20,01,38,18.70
2012,07,20,01,39,18.70
2012,07,20,01,40,18.70
2012,07,20,01,41,18.70
2012,07,20,01,42,18.70
2012,07,20,01,43,18.70
2012,07,20,01,44,18.70
2012,07,20,01,45,18.70
2012,07,20,01,46,18.70
2012,07,20,01,47,18.60
2012,07,20,01,48,18.60
2012,07,20,01,49,18.70
2012,07,20,01,50,18.70
2012,07,20,01,51,18.70
2012,07,20,01,52,18.70
2012,07,20,01,53,18.70
2012,07,20,01,54,18.70
2012,07,20,01,55,18.70
2012,07,20,01,56,18.70
2012,07,20,01,57,18.70
2012,07,20,01,58,18.70
2012,07,20,01,59,18.70
2012,07,20,02,00,18.70
2012,07,20,02,01,18.70
2012,07,20,02,02,18.70
2012,07,20,02,03,18.70
2012,07,20,02,04,18.70
2012,07,20,02,05,18.80
2012,07,20,02,06,18.80
2012,07,20,02,07,18.80
2012,07,20,02,08,18.80
2012,07,20,02,09,18.90
2012,07,20,02,10,18.90
2012,07,20,02,11,18.90
2012,07,20,02,12,18.90
2012,07,20,02,13,18.90
2012,07,20,02,14,19.00
2012,07,20,02,15,19.00
2012,07,20,02,16,19.00
2012,07,20,02,17,19.10
2012,07,20,02,18,19.10
2012,07,20,02,19,19.10
2012,07,20,02,20,19.10
2012,07,20,02,21,19.10
2012,07,20,02,22,19.10
2012,07,20,02,23,19.10
2012,07,20,02,24,19.10
2012,07,20,02,25,19.20
2012,07,20,02,26,19.20
2012,07,20,02,27,19.20
2012,07,20,02,28,19.30
2012,07,20,02,29,19.30
2012,07,20,02,30,19.40
2012,07,20,02,31,19.40
2012,07,20,02,32,19.40
2012,07,20,02,33,19.50
2012,07,20,02,34,19.50
2012,07,20,02,35,19.50
2012,07,20,02,36,19.50
2012,07,20,02,37,19.50
2012,07,20,02,38,19.40
2012,07,20,02,39,19.40
2012,07,20,02,40,19.40
2012,07,20,02,41,19.40
2012,07,20,02,42,19.40
2012,07,20,02,43,19.40
2012,07,20,02,44,19.50
2012,07,20,02,45,19.50
2012,07,20,02,46,19.50
2012,07,20,02,47,19.50
2012,07,20,02,48,19.50
2012,07,20,02,49,19.50
2012,07,20,02,50,19.50
2012,07,20,02,51,19.50
2012,07,20,02,52,19.60
2012,07,20,02,53,19.60
2012,07,20,02,54,19.60
2012,07,20,02,55,19.60
2012,07,20,02,56,19.60
2012,07,20,02,57,19.60
2012,07,20,02,58,19.50
2012,07,20,02,59,19.50
2012,07,20,03,00,19.40
2012,07,20,03,01,19.40
2012,07,20,03,02,19.40
2012,07,20,03,03,19.40
2012,07,20,03,04,19.40
2012,07,20,03,05,19.40
2012,07,20,03,06,19.30
2012,07,20,03,07,19.30
2012,07,20,03,08,19.30
2012,07,20,03,09,19.30
2012,07,20,03,10,19.30
2012,07,20,03,11,19.30
2012,07,20,03,12,19.30
2012,07,20,03,13,19.20
2012,07,20,03,14,19.20
2012,07,20,03,15,19.20
2012,07,20,03,16,19.30
2012,07,20,03,17,19.30
2012,07,20,03,18,19.20
2012,07,20,03,19,19.20
2012,07,20,03,20,19.20
2012,07,20,03,21,19.20
2012,07,20,03,22,19.10
2012,07,20,03,23,19.10
2012,07,20,03,24,19.10
2012,07,20,03,25,19.10
2012,07,20,03,26,19.10
2012,07,20,03,27,19.10
2012,07,20,03,28,19.10
2012,07,20,03,29,19.10
2012,07,20,03,30,19.20
2012,07,20,03,31,19.20
2012,07,20,03,32,19.20
2012,07,20,03,33,19.20
2012,07,20,03,34,19.20
2012,07,20,03,35,19.20
2012,07,20,03,36,19.20
2012,07,20,03,37,19.10
2012,07,20,03,38,19.10
2012,07,20,03,39,19.10
2012,07,20,03,40,19.10
2012,07,20,03,41,19.10
2012,07,20,03,42,19.10
2012,07,20,03,43,19.10
2012,07,20,03,44,19.10
2012,07,20,03,45,19.10
2012,07,20,03,46,19.10
2012,07,20,03,47,19.10
2012,07,20,03,48,19.00
2012,07,20,03,49,19.00
2012,07,20,03,50,19.00
2012,07,20,03,51,19.00
2012,07,20,03,52,18.90
2012,07,20,03,53,18.90
2012,07,20,03,54,18.90
2012,07,20,03,55,18.80
2012,07,20,03,56,18.80
2012,07,20,03,57,18.80
2012,07,20,03,58,18.80
2012,07,20,03,59,18.80
2012,07,20,04,00,18.70
2012,07,20,04,01,18.70
2012,07,20,04,02,18.70
2012,07,20,04,03,18.70
2012,07,20,04,04,18.70
2012,07,20,04,05,18.70
2012,07,20,04,06,18.70
2012,07,20,04,07,18.80
2012,07,20,04,08,18.80
2012,07,20,04,09,18.80
2012,07,20,04,10,18.80
2012,07,20,04,11,18.90
2012,07,20,04,12,18.90
2012,07,20,04,13,18.90
2012,07,20,04,14,18.90
2012,07,20,04,15,18.90
2012,07,20,04,16,19.00
2012,07,20,04,17,19.00
2012,07,20,04,18,19.00
2012,07,20,04,19,19.00
2012,07,20,04,20,19.00
2012,07,20,04,21,19.00
2012,07,20,04,22,19.10
2012,07,20,04,23,19.00
2012,07,20,04,24,19.10
2012,07,20,04,25,19.10
2012,07,20,04,26,19.10
2012,07,20,04,27,19.10
2012,07,20,04,28,19.10
2012,07,20,04,29,19.10
2012,07,20,04,30,19.10
2012,07,20,04,31,19.00
2012,07,20,04,32,19.00
2012,07,20,04,33,19.00
2012,07,20,04,34,19.00
2012,07,20,04,35,18.90
2012,07,20,04,36,18.90
2012,07,20,04,37,18.90
2012,07,20,04,38,18.90
2012,07,20,04,39,18.90
2012,07,20,04,40,18.90
2012,07,20,04,41,18.90
2012,07,20,04,42,18.80
2012,07,20,04,43,18.80
2012,07,20,04,44,18.80
2012,07,20,04,45,18.80
2012,07,20,04,46,18.80
2012,07,20,04,47,18.80
2012,07,20,04,48,18.80
2012,07,20,04,49,18.80
2012,07,20,04,50,18.80
2012,07,20,04,51,18.70
2012,07,20,04,52,18.70
2012,07,20,04,53,18.70
2012,07,20,04,54,18.70
2012,07,20,04,55,18.70
2012,07,20,04,56,18.70
2012,07,20,04,57,18.70
2012,07,20,04,58,18.70
2012,07,20,04,59,18.70
2012,07,20,05,00,18.70
2012,07,20,05,01,18.70
2012,07,20,05,02,18.60
2012,07,20,05,03,18.60
2012,07,20,05,04,18.60
2012,07,20,05,05,18.60
2012,07,20,05,06,18.60
2012,07,20,05,07,18.60
2012,07,20,05,08,18.60
2012,07,20,05,09,18.60
2012,07,20,05,10,18.60
2012,07,20,05,11,18.60
2012,07,20,05,12,18.60
2012,07,20,05,13,18.60
2012,07,20,05,14,18.60
2012,07,20,05,15,18.60
2012,07,20,05,16,18.60
2012,07,20,05,17,18.60
2012,07,20,05,18,18.60
2012,07,20,05,19,18.60
2012,07,20,05,20,18.60
2012,07,20,05,21,18.60
2012,07,20,05,22,18.60
2012,07,20,05,23,18.60
2012,07,20,05,24,18.60
2012,07,20,05,25,18.60
2012,07,20,05,26,18.60
2012,07,20,05,27,18.60
2012,07,20,05,28,18.60
2012,07,20,05,29,18.60
2012,07,20,05,30,18.70
2012,07,20,05,31,18.70
2012,07,20,05,32,18.70
2012,07,20,05,33,18.70
2012,07,20,05,34,18.70
2012,07,20,05,35,18.70
2012,07,20,05,36,18.70
2012,07,20,05,37,18.70
2012,07,20,05,38,18.70
2012,07,20,05,39,18.70
2012,07,20,05,40,18.70
2012,07,20,05,41,18.70
2012,07,20,05,42,18.70
2012,07,20,05,43,18.70
2012,07,20,05,44,18.70
2012,07,20,05,45,18.70
2012,07,20,05,46,18.70
2012,07,20,05,47,18.70
2012,07,20,05,48,18.70
2012,07,20,05,49,18.70
2012,07,20,05,50,18.70
2012,07,20,05,51,18.70
2012,07,20,05,52,18.70
2012,07,20,05,53,18.70
2012,07,20,05,54,18.70
2012,07,20,05,55,18.70
2012,07,20,05,56,18.70
2012,07,20,05,57,18.70
2012,07,20,05,58,18.70
2012,07,20,05,59,18.70
2012,07,20,06,00,18.70
2012,07,20,06,01,18.70
2012,07,20,06,02,18.70
2012,07,20,06,03,18.70
2012,07,20,06,04,18.70
2012,07,20,06,05,18.70
2012,07,20,06,06,18.70
2012,07,20,06,07,18.70
2012,07,20,06,08,18.70
2012,07,20,06,09,18.70
2012,07,20,06,10,18.70
2012,07,20,06,11,18.70
2012,07,20,06,12,18.70
2012,07,20,06,13,18.70
2012,07,20,06,14,18.70
2012,07,20,06,15,18.70
2012,07,20,06,16,18.70
2012,07,20,06,17,18.70
2012,07,20,06,18,18.70
2012,07,20,06,19,18.70
2012,07,20,06,20,18.70
2012,07,20,06,21,18.70
2012,07,20,06,22,18.70
2012,07,20,06,23,18.70
2012,07,20,06,24,18.70
2012,07,20,06,25,18.70
2012,07,20,06,26,18.70
2012,07,20,06,27,18.70
2012,07,20,06,28,18.70
2012,07,20,06,29,18.60
2012,07,20,06,30,18.60
2012,07,20,06,31,18.60
2012,07,20,06,32,18.60
2012,07,20,06,33,18.60
2012,07,20,06,34,18.60
2012,07,20,06,35,18.60
2012,07,20,06,36,18.60
2012,07,20,06,37,18.50
2012,07,20,06,38,18.50
2012,07,20,06,39,18.50
2012,07,20,06,40,18.50
2012,07,20,06,41,18.50
2012,07,20,06,42,18.40
2012,07,20,06,43,18.40
2012,07,20,06,44,18.40
2012,07,20,06,45,18.40
2012,07,20,06,46,18.30
2012,07,20,06,47,18.30
2012,07,20,06,48,18.30
2012,07,20,06,49,18.30
2012,07,20,06,50,18.30
2012,07,20,06,51,18.20
2012,07,20,06,52,18.20
2012,07,20,06,53,18.20
2012,07,20,06,54,18.20
2012,07,20,06,55,18.20
2012,07,20,06,56,18.10
2012,07,20,06,57,18.10
2012,07,20,06,58,18.10
2012,07,20,06,59,18.10
2012,07,20,07,00,18.10
2012,07,20,07,01,18.00
2012,07,20,07,02,18.00
2012,07,20,07,03,17.90
2012,07,20,07,04,17.90
2012,07,20,07,05,17.90
2012,07,20,07,06,17.90
2012,07,20,07,07,17.80
2012,07,20,07,08,17.80
2012,07,20,07,09,17.80
2012,07,20,07,10,17.80
2012,07,20,07,11,17.80
2012,07,20,07,12,17.80
2012,07,20,07,13,17.80
2012,07,20,07,14,17.70
2012,07,20,07,15,17.70
2012,07,20,07,16,17.70
2012,07,20,07,17,17.70
2012,07,20,07,18,17.70
2012,07,20,07,19,17.70
2012,07,20,07,20,17.70
2012,07,20,07,21,17.70
2012,07,20,07,22,17.70
2012,07,20,07,23,17.70
2012,07,20,07,24,17.70
2012,07,20,07,25,17.70
2012,07,20,07,26,17.70
2012,07,20,07,27,17.70
2012,07,20,07,28,17.70
2012,07,20,07,29,17.70
2012,07,20,07,30,17.70
2012,07,20,07,31,17.70
2012,07,20,07,32,17.60
2012,07,20,07,33,17.60
2012,07,20,07,34,17.60
2012,07,20,07,35,17.60
2012,07,20,07,36,17.60
2012,07,20,07,37,17.60
2012,07,20,07,38,17.50
2012,07,20,07,39,17.50
2012,07,20,07,40,17.50
2012,07,20,07,41,17.50
2012,07,20,07,42,17.40
2012,07,20,07,43,17.40
2012,07,20,07,44,17.40
2012,07,20,07,45,17.40
2012,07,20,07,46,17.40
2012,07,20,07,47,17.40
2012,07,20,07,48,17.40
2012,07,20,07,49,17.40
2012,07,20,07,50,17.40
2012,07,20,07,51,17.40
2012,07,20,07,52,17.30
2012,07,20,07,53,17.30
2012,07,20,07,54,17.30
2012,07,20,07,55,17.40
2012,07,20,07,56,17.40
2012,07,20,07,57,17.40
2012,07,20,07,58,17.40
2012,07,20,07,59,17.40
2012,07,20,08,00,17.40
2012,07,20,08,01,17.40
2012,07,20,08,02,17.40
2012,07,20,08,03,17.40
2012,07,20,08,04,17.40
2012,07,20,08,05,17.40
2012,07,20,08,06,17.40
2012,07,20,08,07,17.40
2012,07,20,08,08,17.40
2012,07,20,08,09,17.40
2012,07,20,08,10,17.40
2012,07,20,08,11,17.40
2012,07,20,08,12,17.40
2012,07,20,08,13,17.40
2012,07,20,08,14,17.40
2012,07,20,08,15,17.40
2012,07,20,08,16,17.40
2012,07,20,08,17,17.40
2012,07,20,08,18,17.50
2012,07,20,08,19,17.50
2012,07,20,08,20,17.50
2012,07,20,08,21,17.50
2012,07,20,08,22,17.50
2012,07,20,08,23,17.60
2012,07,20,08,24,17.60
2012,07,20,08,25,17.50
2012,07,20,08,26,17.50
2012,07,20,08,27,17.50
2012,07,20,08,28,17.50
2012,07,20,08,29,17.50
2012,07,20,08,30,17.50
2012,07,20,08,31,17.50
2012,07,20,08,32,17.50
2012,07,20,08,33,17.50
2012,07,20,08,34,17.50
2012,07,20,08,35,17.50
2012,07,20,08,36,17.50
2012,07,20,08,37,17.50
2012,07,20,08,38,17.50
2012,07,20,08,39,17.60
2012,07,20,08,40,17.60
2012,07,20,08,41,17.60
2012,07,20,08,42,17.60
2012,07,20,08,43,17.60
2012,07,20,08,44,17.60
2012,07,20,08,45,17.60
2012,07,20,08,46,17.60
2012,07,20,08,47,17.60
2012,07,20,08,48,17.60
2012,07,20,08,49,17.50
2012,07,20,08,50,17.50
2012,07,20,08,51,17.50
2012,07,20,08,52,17.50
2012,07,20,08,53,17.50
2012,07,20,08,54,17.50
2012,07,20,08,55,17.50
2012,07,20,08,56,17.60
2012,07,20,08,57,17.60
2012,07,20,08,58,17.60
2012,07,20,08,59,17.50
2012,07,20,09,00,17.60
2012,07,20,09,01,17.50
2012,07,20,09,02,17.60
2012,07,20,09,03,17.60
2012,07,20,09,04,17.60
2012,07,20,09,05,17.60
2012,07,20,09,06,17.60
2012,07,20,09,07,17.60
2012,07,20,09,08,17.60
2012,07,20,09,09,17.60
2012,07,20,09,10,17.60
2012,07,20,09,11,17.60
2012,07,20,09,12,17.60
2012,07,20,09,13,17.60
2012,07,20,09,14,17.70
2012,07,20,09,15,17.70
2012,07,20,09,16,17.70
2012,07,20,09,17,17.70
2012,07,20,09,18,17.70
2012,07,20,09,19,17.80
2012,07,20,09,20,17.80
2012,07,20,09,21,17.80
2012,07,20,09,22,17.80
2012,07,20,09,23,17.80
2012,07,20,09,24,17.90
2012,07,20,09,25,17.90
2012,07,20,09,26,17.90
2012,07,20,09,27,17.90
2012,07,20,09,28,17.90
2012,07,20,09,29,17.90
2012,07,20,09,30,17.90
2012,07,20,09,31,17.90
2012,07,20,09,32,17.90
2012,07,20,09,33,17.90
2012,07,20,09,34,17.90
2012,07,20,09,35,17.90
2012,07,20,09,36,17.90
2012,07,20,09,37,17.90
2012,07,20,09,38,17.90
2012,07,20,09,39,17.90
2012,07,20,09,40,17.90
2012,07,20,09,41,17.90
2012,07,20,09,42,17.90
2012,07,20,09,43,17.90
2012,07,20,09,44,17.90
2012,07,20,09,45,17.90
2012,07,20,09,46,17.90
2012,07,20,09,47,17.80
2012,07,20,09,48,17.80
2012,07,20,09,49,17.80
2012,07,20,09,50,17.80
2012,07,20,09,51,17.80
2012,07,20,09,52,17.80
2012,07,20,09,53,17.80
2012,07,20,09,54,17.80
2012,07,20,09,55,17.80
2012,07,20,09,56,17.90
2012,07,20,09,57,17.90
2012,07,20,09,58,17.90
2012,07,20,09,59,17.90
2012,07,20,10,00,17.90
2012,07,20,10,01,18.00
2012,07,20,10,02,18.00
2012,07,20,10,03,18.00
2012,07,20,10,04,18.00
2012,07,20,10,05,18.00
2012,07,20,10,06,18.10
2012,07,20,10,07,18.10
2012,07,20,10,08,18.10
2012,07,20,10,09,18.10
2012,07,20,10,10,18.20
2012,07,20,10,11,18.20
2012,07,20,10,12,18.20
2012,07,20,10,13,18.20
2012,07,20,10,14,18.20
2012,07,20,10,15,18.20
2012,07,20,10,16,18.20
2012,07,20,10,17,18.20
2012,07,20,10,18,18.20
2012,07,20,10,19,18.20
2012,07,20,10,20,18.20
2012,07,20,10,21,18.20
2012,07,20,10,22,18.20
2012,07,20,10,23,18.20
2012,07,20,10,24,18.20
2012,07,20,10,25,18.20
2012,07,20,10,26,18.20
2012,07,20,10,27,18.30
2012,07,20,10,28,18.30
2012,07,20,10,29,18.30
2012,07,20,10,30,18.30
2012,07,20,10,31,18.30
2012,07,20,10,32,18.30
2012,07,20,10,33,18.40
2012,07,20,10,34,18.40
2012,07,20,10,35,18.40
2012,07,20,10,36,18.40
2012,07,20,10,37,18.50
2012,07,20,10,38,18.50
2012,07,20,10,39,18.60
2012,07,20,10,40,18.70
2012,07,20,10,41,18.70
2012,07,20,10,42,18.80
2012,07,20,10,43,18.90
2012,07,20,10,44,18.90
2012,07,20,10,45,19.00
2012,07,20,10,46,19.00
2012,07,20,10,47,19.10
2012,07,20,10,48,19.20
2012,07,20,10,49,19.20
2012,07,20,10,50,19.20
2012,07,20,10,51,19.20
2012,07,20,10,52,19.30
2012,07,20,10,53,19.30
2012,07,20,10,54,19.30
2012,07,20,10,55,19.30
2012,07,20,10,56,19.40
2012,07,20,10,57,19.40
2012,07,20,10,58,19.40
2012,07,20,10,59,19.40
2012,07,20,11,00,19.40
2012,07,20,11,01,19.40
2012,07,20,11,02,19.40
2012,07,20,11,03,19.40
2012,07,20,11,04,19.40
2012,07,20,11,05,19.40
2012,07,20,11,06,19.40
2012,07,20,11,07,19.40
2012,07,20,11,08,19.40
2012,07,20,11,09,19.40
2012,07,20,11,10,19.30
2012,07,20,11,11,19.30
2012,07,20,11,12,19.40
2012,07,20,11,13,19.40
2012,07,20,11,14,19.40
2012,07,20,11,15,19.30
2012,07,20,11,16,19.30
2012,07,20,11,17,19.30
2012,07,20,11,18,19.30
2012,07,20,11,19,19.30
2012,07,20,11,20,19.30
2012,07,20,11,21,19.30
2012,07,20,11,22,19.30
2012,07,20,11,23,19.30
2012,07,20,11,24,19.30
2012,07,20,11,25,19.30
2012,07,20,11,26,19.30
2012,07,20,11,27,19.30
2012,07,20,11,28,19.30
2012,07,20,11,29,19.30
2012,07,20,11,30,19.30
2012,07,20,11,31,19.40
2012,07,20,11,32,19.40
2012,07,20,11,33,19.40
2012,07,20,11,34,19.40
2012,07,20,11,35,19.40
2012,07,20,11,36,19.40
2012,07,20,11,37,19.40
2012,07,20,11,38,19.30
2012,07,20,11,39,19.30
2012,07,20,11,40,19.30
2012,07,20,11,41,19.30
2012,07,20,11,42,19.30
2012,07,20,11,43,19.20
2012,07,20,11,44,19.20
2012,07,20,11,45,19.20
2012,07,20,11,46,19.20
2012,07,20,11,47,19.10
2012,07,20,11,48,19.00
2012,07,20,11,49,18.90
2012,07,20,11,50,18.80
2012,07,20,11,51,18.70
2012,07,20,11,52,18.60
2012,07,20,11,53,18.60
2012,07,20,11,54,18.50
2012,07,20,11,55,18.50
2012,07,20,11,56,18.40
2012,07,20,11,57,18.40
2012,07,20,11,58,18.40
2012,07,20,11,59,18.30
2012,07,20,12,00,18.30
2012,07,20,12,01,18.30
2012,07,20,12,02,18.30
2012,07,20,12,03,18.30
2012,07,20,12,04,18.30
2012,07,20,12,05,18.30
2012,07,20,12,06,18.30
2012,07,20,12,07,18.30
2012,07,20,12,08,18.30
2012,07,20,12,09,18.30
2012,07,20,12,10,18.30
2012,07,20,12,11,18.30
2012,07,20,12,12,18.30
2012,07,20,12,13,18.30
2012,07,20,12,14,18.30
2012,07,20,12,15,18.20
2012,07,20,12,16,18.20
2012,07,20,12,17,18.20
2012,07,20,12,18,18.20
2012,07,20,12,19,18.10
2012,07,20,12,20,18.10
2012,07,20,12,21,18.10
2012,07,20,12,22,18.10
2012,07,20,12,23,18.10
2012,07,20,12,24,18.10
2012,07,20,12,25,18.10
2012,07,20,12,26,18.00
2012,07,20,12,27,18.00
2012,07,20,12,28,18.00
2012,07,20,12,29,18.00
2012,07,20,12,30,18.00
2012,07,20,12,31,18.00
2012,07,20,12,32,18.00
2012,07,20,12,33,18.00
2012,07,20,12,34,18.00
2012,07,20,12,35,18.00
2012,07,20,12,36,18.10
2012,07,20,12,37,18.10
2012,07,20,12,38,18.10
2012,07,20,12,39,18.10
2012,07,20,12,40,18.10
2012,07,20,12,41,18.10
2012,07,20,12,42,18.10
2012,07,20,12,43,18.10
2012,07,20,12,44,18.10
2012,07,20,12,45,18.10
2012,07,20,12,46,18.00
2012,07,20,12,47,18.00
2012,07,20,12,48,18.00
2012,07,20,12,49,18.00
2012,07,20,12,50,17.90
2012,07,20,12,51,17.90
2012,07,20,12,52,17.90
2012,07,20,12,53,17.90
2012,07,20,12,54,17.80
2012,07,20,12,55,17.80
2012,07,20,12,56,17.80
2012,07,20,12,57,17.80
2012,07,20,12,58,17.80
2012,07,20,12,59,17.80
2012,07,20,13,00,17.80
2012,07,20,13,01,17.80
2012,07,20,13,02,17.80
2012,07,20,13,03,17.80
2012,07,20,13,04,17.80
2012,07,20,13,05,17.80
2012,07,20,13,06,17.80
2012,07,20,13,07,17.80
2012,07,20,13,08,17.80
2012,07,20,13,09,17.80
2012,07,20,13,10,17.80
2012,07,20,13,11,17.70
2012,07,20,13,12,17.70
2012,07,20,13,13,17.80
2012,07,20,13,14,17.80
2012,07,20,13,15,17.80
2012,07,20,13,16,17.70
2012,07,20,13,17,17.70
2012,07,20,13,18,17.70
2012,07,20,13,19,17.70
2012,07,20,13,20,17.70
2012,07,20,13,21,17.70
2012,07,20,13,22,17.70
2012,07,20,13,23,17.70
2012,07,20,13,24,17.70
2012,07,20,13,25,17.70
2012,07,20,13,26,17.70
2012,07,20,13,27,17.70
2012,07,20,13,28,17.70
2012,07,20,13,29,17.70
2012,07,20,13,30,17.70
2012,07,20,13,31,17.70
2012,07,20,13,32,17.70
2012,07,20,13,33,17.80
2012,07,20,13,34,17.80
2012,07,20,13,35,17.80
2012,07,20,13,36,17.80
2012,07,20,13,37,17.80
2012,07,20,13,38,17.80
2012,07,20,13,39,17.70
2012,07,20,13,40,17.70
2012,07,20,13,41,17.70
2012,07,20,13,42,17.70
2012,07,20,13,43,17.70
2012,07,20,13,44,17.70
2012,07,20,13,45,17.70
2012,07,20,13,46,17.70
2012,07,20,13,47,17.70
2012,07,20,13,48,17.70
2012,07,20,13,49,17.70
2012,07,20,13,50,17.70
2012,07,20,13,51,17.70
2012,07,20,13,52,17.70
2012,07,20,13,53,17.70
2012,07,20,13,54,17.70
2012,07,20,13,55,17.70
2012,07,20,13,56,17.80
2012,07,20,13,57,17.80
2012,07,20,13,58,17.80
2012,07,20,13,59,17.80
2012,07,20,14,00,17.80
2012,07,20,14,01,17.80
2012,07,20,14,02,17.80
2012,07,20,14,03,17.80
2012,07,20,14,04,17.80
2012,07,20,14,05,17.80
2012,07,20,14,06,17.80
2012,07,20,14,07,17.80
2012,07,20,14,08,17.90
2012,07,20,14,09,17.90
2012,07,20,14,10,17.90
2012,07,20,14,11,17.90
2012,07,20,14,12,17.90
2012,07,20,14,13,17.90
2012,07,20,14,14,17.90
2012,07,20,14,15,18.00
2012,07,20,14,16,18.00
2012,07,20,14,17,18.10
2012,07,20,14,18,18.10
2012,07,20,14,19,18.10
2012,07,20,14,20,18.20
2012,07,20,14,21,18.30
2012,07,20,14,22,18.30
2012,07,20,14,23,18.30
2012,07,20,14,24,18.40
2012,07,20,14,25,18.40
2012,07,20,14,26,18.40
2012,07,20,14,27,18.40
2012,07,20,14,28,18.40
2012,07,20,14,29,18.40
2012,07,20,14,30,18.50
2012,07,20,14,31,18.50
2012,07,20,14,32,18.60
2012,07,20,14,33,18.60
2012,07,20,14,34,18.70
2012,07,20,14,35,18.70
2012,07,20,14,36,18.70
2012,07,20,14,37,18.80
2012,07,20,14,38,18.80
2012,07,20,14,39,18.80
2012,07,20,14,40,18.80
2012,07,20,14,41,18.80
2012,07,20,14,42,18.80
2012,07,20,14,43,18.80
2012,07,20,14,44,18.80
2012,07,20,14,45,18.90
2012,07,20,14,46,18.90
2012,07,20,14,47,19.00
2012,07,20,14,48,19.00
2012,07,20,14,49,19.00
2012,07,20,14,50,19.10
2012,07,20,14,51,19.10
2012,07,20,14,52,19.00
2012,07,20,14,53,19.00
2012,07,20,14,54,19.00
2012,07,20,14,55,18.90
2012,07,20,14,56,18.90
2012,07,20,14,57,18.90
2012,07,20,14,58,18.90
2012,07,20,14,59,18.90
2012,07,20,15,00,18.90
2012,07,20,15,01,19.00
2012,07,20,15,02,19.00
2012,07,20,15,03,19.10
2012,07,20,15,04,19.10
2012,07,20,15,05,19.10
2012,07,20,15,06,19.20
2012,07,20,15,07,19.20
2012,07,20,15,08,19.20
2012,07,20,15,09,19.30
2012,07,20,15,10,19.30
2012,07,20,15,11,19.40
2012,07,20,15,12,19.40
2012,07,20,15,13,19.40
2012,07,20,15,14,19.50
2012,07,20,15,15,19.50
2012,07,20,15,16,19.50
2012,07,20,15,17,19.60
2012,07,20,15,18,19.60
2012,07,20,15,19,19.60
2012,07,20,15,20,19.60
2012,07,20,15,21,19.60
2012,07,20,15,22,19.70
2012,07,20,15,23,19.70
2012,07,20,15,24,19.70
2012,07,20,15,25,19.80
2012,07,20,15,26,19.80
2012,07,20,15,27,19.80
2012,07,20,15,28,19.80
2012,07,20,15,29,19.80
2012,07,20,15,30,19.90
2012,07,20,15,31,19.90
2012,07,20,15,32,19.90
2012,07,20,15,33,19.90
2012,07,20,15,34,19.90
2012,07,20,15,35,19.90
2012,07,20,15,36,19.80
2012,07,20,15,37,19.80
2012,07,20,15,38,19.80
2012,07,20,15,39,19.80
2012,07,20,15,40,19.80
2012,07,20,15,41,19.80
2012,07,20,15,42,19.80
2012,07,20,15,43,19.90
2012,07,20,15,44,19.80
2012,07,20,15,45,19.80
2012,07,20,15,46,19.90
2012,07,20,15,47,19.90
2012,07,20,15,48,19.90
2012,07,20,15,49,19.90
2012,07,20,15,50,19.90
2012,07,20,15,51,19.90
2012,07,20,15,52,19.90
2012,07,20,15,53,19.80
2012,07,20,15,54,19.80
2012,07,20,15,55,19.70
2012,07,20,15,56,19.70
2012,07,20,15,57,19.70
2012,07,20,15,58,19.70
2012,07,20,15,59,19.70
2012,07,20,16,00,19.70
2012,07,20,16,01,19.70
2012,07,20,16,02,19.70
2012,07,20,16,03,19.80
2012,07,20,16,04,19.80
2012,07,20,16,05,19.80
2012,07,20,16,06,19.90
2012,07,20,16,07,19.90
2012,07,20,16,08,19.90
2012,07,20,16,09,19.90
2012,07,20,16,10,19.90
2012,07,20,16,11,19.90
2012,07,20,16,12,20.00
2012,07,20,16,13,20.00
2012,07,20,16,14,20.00
2012,07,20,16,15,20.00
2012,07,20,16,16,20.00
2012,07,20,16,17,20.10
2012,07,20,16,18,20.10
2012,07,20,16,19,20.10
2012,07,20,16,20,20.00
2012,07,20,16,21,20.10
2012,07,20,16,22,20.10
2012,07,20,16,23,20.10
2012,07,20,16,24,20.10
2012,07,20,16,25,20.00
2012,07,20,16,26,20.00
2012,07,20,16,27,20.00
2012,07,20,16,28,19.90
2012,07,20,16,29,19.90
2012,07,20,16,30,19.90
2012,07,20,16,31,19.90
2012,07,20,16,32,19.90
2012,07,20,16,33,19.90
2012,07,20,16,34,19.90
2012,07,20,16,35,19.90
2012,07,20,16,36,19.90
2012,07,20,16,37,19.90
2012,07,20,16,38,20.00
2012,07,20,16,39,20.00
2012,07,20,16,40,20.10
2012,07,20,16,41,20.10
2012,07,20,16,42,20.10
2012,07,20,16,43,20.10
2012,07,20,16,44,20.10
2012,07,20,16,45,20.10
2012,07,20,16,46,20.10
2012,07,20,16,47,20.10
2012,07,20,16,48,20.10
2012,07,20,16,49,20.10
2012,07,20,16,50,20.10
2012,07,20,16,51,20.00
2012,07,20,16,52,20.00
2012,07,20,16,53,20.00
2012,07,20,16,54,20.00
2012,07,20,16,55,19.90
2012,07,20,16,56,19.90
2012,07,20,16,57,19.80
2012,07,20,16,58,19.70
2012,07,20,16,59,19.70
2012,07,20,17,00,19.70
2012,07,20,17,01,19.60
2012,07,20,17,02,19.60
2012,07,20,17,03,19.60
2012,07,20,17,04,19.50
2012,07,20,17,05,19.40
2012,07,20,17,06,19.40
2012,07,20,17,07,19.30
2012,07,20,17,08,19.30
2012,07,20,17,09,19.30
2012,07,20,17,10,19.30
2012,07,20,17,11,19.30
2012,07,20,17,12,19.30
2012,07,20,17,13,19.20
2012,07,20,17,14,19.20
2012,07,20,17,15,19.20
2012,07,20,17,16,19.20
2012,07,20,17,17,19.10
2012,07,20,17,18,19.00
2012,07,20,17,19,19.00